Flag for Afghanistan Weather past 2 weeks in Herat, Afghanistan

Now
86 °F

Clear.


Feels Like: 83 °F
Forecast: 69 / 94 °F
Wind: 14 mph from Northeast

Location: Herat Airport

Current Time: Jul 24, 2014 at 9:05:17 PM

Latest Report: Jul 24, 2014 at 8:25 PM


Visibility: 10 mi

Pressure: 29.77 "Hg

Humidity: 14%

Dew point: 32 °F

Location of HeratLocation

Historic Weather in Herat — Graph

°F

Herat temperature yesterday

Maximum temperature yesterday: 100 °F (at 12:25 PM)
Minimum temperature yesterday: 79 °F (at 5:25 AM)
Average temperature yesterday: 92 °F

Past Weeks' High & Low Weather Summary

 TemperatureHumidityPressure
High109 °F (Jul 22, 1:25 PM)28% (Jul 12, 5:24 AM)29.89 "Hg (Jul 12, 5:24 AM)
Low64 °F (Jul 20, 6:24 AM)5% (Jul 19, 3:25 PM)29.59 "Hg (Jul 22, 4:24 PM)
Average87 °F13%29.78 "Hg
* Reported Jul 9 7:24 PM — Jul 24 7:25 PM, Herat, Weather by CustomWeather, © 2014

Note: Actual official high and low records may vary slightly from our data, if they occured in-between our weather recording intervals... More about our weather records

Advertising

Herat weather history for previous 24 hours

 ConditionsComfort  
Time TempWeatherWind HumidityBarometerVisibility
7:25 PM
Jul 24
88 °FSunny.16 mph13%29.77 "Hg10 mi
6:24 PM91 °FClear.21 mph13%29.74 "Hg5 mi
5:24 PM93 °FClear.25 mph12%29.74 "Hg4 mi
4:24 PM95 °FClear.23 mph12%29.74 "Hg4 mi
3:25 PM97 °FDuststorm.24 mph12%29.74 "Hg3 mi
2:25 PM97 °FDuststorm.23 mph12%29.74 "Hg3 mi
1:25 PM97 °FDuststorm.24 mph12%29.77 "Hg3 mi
12:25 PM95 °FDuststorm.24 mph12%29.77 "Hg3 mi
11:25 AM93 °FDuststorm.18 mph14%29.80 "Hg3 mi
10:25 AM93 °FLow level haze.20 mph13%29.83 "Hg3 mi
9:24 AM90 °FLow level haze.15 mph14%29.83 "Hg3 mi
8:24 AM86 °FLow level haze.15 mph17%29.83 "Hg2 mi
7:24 AM82 °FDuststorm.20 mph21%29.83 "Hg3 mi
6:25 AM81 °FDuststorm.16 mph21%29.83 "Hg3 mi
5:25 AM79 °FFog.10 mph24%29.83 "HgN/A
4:24 AM81 °FPassing clouds.14 mph21%29.83 "HgN/A
3:24 AM81 °FPassing clouds.10 mph21%29.80 "HgN/A
2:24 AM81 °FPassing clouds.9 mph21%29.80 "HgN/A
1:25 AM82 °FPassing clouds.12 mph19%29.80 "HgN/A
12:25 AM84 °FClear.18 mph18%29.80 "Hg10 mi
11:24 PM
Jul 23
84 °FLight fog.14 mph16%29.83 "Hg6 mi
10:25 PM86 °FLight fog.16 mph14%29.80 "Hg4 mi
9:24 PM88 °FFog.20 mph15%29.80 "Hg3 mi
Weather by CustomWeather, © 2014

See weather overviewHow to use our weather pages